Location: Unspecified
(0.0000°N, 0.0000°E)
Time: 20:49:37
(UTC+02:00)

Altair - All Passes

Search period start: 02 September 2014 00:00
Search period end: 12 September 2014 00:00
Orbit: 1502 x 1682 km, 47.2° (Epoch: 02 September)

Date Brightness Start Highest point End Pass type
(mag) Time Alt. Az. Time Alt. Az. Time Alt. Az.
02 Sep - 03:31:50 10° N 03:39:38 31° NE 03:47:31 10° ESE visible
02 Sep - 05:35:15 10° NW 05:44:05 53° SW 05:53:13 10° SSE visible
02 Sep - 14:20:22 10° SSE 14:24:29 13° SE 14:28:34 10° ESE daylight
02 Sep - 16:19:46 10° SSW 16:29:52 70° SE 16:39:43 10° NE daylight
02 Sep - 18:26:50 10° W 18:34:36 26° NW 18:42:15 10° N daylight
03 Sep - 03:07:03 10° N 03:14:29 28° NE 03:21:58 10° ESE visible
03 Sep - 05:10:01 10° NW 05:18:58 59° SW 05:28:12 10° SSE visible
03 Sep - 13:56:48 10° SSE 13:59:10 11° SE 14:01:32 10° ESE daylight
03 Sep - 15:54:41 10° SSW 16:04:42 63° SE 16:14:29 10° NE daylight
03 Sep - 18:01:10 10° WSW 18:09:24 29° NW 18:17:30 10° N daylight
04 Sep - 02:42:20 10° N 02:49:20 24° NE 02:56:21 10° E night (unlit)
04 Sep - 04:44:48 10° NW 04:53:51 67° SW 05:03:10 10° SSE visible
04 Sep - 06:57:03 10° WSW 06:59:07 11° SW 07:01:12 10° SSW visible
04 Sep - 15:29:38 10° SSW 15:39:32 56° SE 15:49:13 10° NE daylight
04 Sep - 17:35:34 10° WSW 17:44:13 33° NW 17:52:42 10° N daylight
05 Sep - 02:17:40 10° N 02:24:09 21° NE 02:30:39 10° E night (unlit)
05 Sep - 04:19:37 10° NW 04:28:44 74° SW 04:38:05 10° SE visible
05 Sep - 06:30:08 10° WSW 06:33:51 13° SW 06:37:37 10° SSW visible
05 Sep - 15:04:37 10° SSW 15:14:21 51° SE 15:23:55 10° ENE daylight
05 Sep - 17:10:02 10° WSW 17:19:02 37° NW 17:27:52 10° NNE daylight
06 Sep - 01:53:06 10° N 01:58:58 19° NE 02:04:50 10° E night (unlit)
06 Sep - 03:54:29 10° NW 04:03:38 83° SW 04:12:59 10° SE visible
06 Sep - 06:03:51 10° WSW 06:08:36 15° SW 06:13:26 10° SSW visible
06 Sep - 14:39:37 10° SSW 14:49:10 45° SE 14:58:33 10° ENE daylight
06 Sep - 16:44:34 10° WSW 16:53:51 41° NW 17:02:58 10° NNE daylight
07 Sep - 01:28:39 10° N 01:33:46 16° NE 01:38:53 10° E night (unlit)
07 Sep - 03:29:22 10° NW 03:38:32 89° NE 03:47:52 10° SE visible
07 Sep - 05:37:50 10° W 05:43:22 17° SW 05:49:01 10° S visible
07 Sep - 14:14:40 10° SSW 14:23:59 40° SE 14:33:09 10° ENE daylight
07 Sep - 16:19:08 10° WSW 16:28:40 46° NW 16:38:03 10° NNE daylight
08 Sep - 01:04:23 10° NNE 01:08:34 14° NE 01:12:43 10° ENE night (unlit)
08 Sep - 03:04:17 10° NW 03:13:26 80° NE 03:22:43 10° SE night (unlit)
08 Sep - 05:11:59 10° W 05:18:10 20° SW 05:24:28 10° S visible
08 Sep - 13:49:46 10° SSW 13:58:47 36° SE 14:07:42 10° ENE daylight
08 Sep - 15:53:46 10° SW 16:03:30 52° NW 16:13:05 10° NNE daylight
09 Sep - 00:40:31 10° NNE 00:43:19 12° NE 00:46:07 10° ENE night (unlit)
09 Sep - 02:39:13 10° NNW 02:48:19 72° NE 02:57:32 10° SE night (unlit)
09 Sep - 04:46:16 10° W 04:52:58 23° SW 04:59:49 10° S visible
09 Sep - 13:24:53 10° S 13:33:35 32° SE 13:42:11 10° ENE daylight
09 Sep - 15:28:26 10° SW 15:38:20 58° NW 15:48:06 10° NNE daylight
10 Sep - 02:14:12 10° NNW 02:23:13 64° NE 02:32:19 10° SE night (unlit)
10 Sep - 04:20:38 10° W 04:27:47 26° SW 04:35:06 10° S visible
10 Sep - 13:00:04 10° S 13:08:22 29° SE 13:16:36 10° ENE daylight
10 Sep - 15:03:08 10° SW 15:13:10 65° NW 15:23:04 10° NNE daylight
10 Sep - 17:15:57 10° WNW 17:18:31 11° NW 17:21:04 10° NNW daylight
11 Sep - 01:49:12 10° NNW 01:58:07 57° NE 02:07:04 10° SE night (unlit)
11 Sep - 03:55:05 10° WNW 04:02:37 29° SW 04:10:20 10° S visible
11 Sep - 12:35:18 10° S 12:43:08 25° SE 12:50:57 10° E daylight
11 Sep - 14:37:53 10° SW 14:48:00 72° NW 14:58:00 10° NNE daylight
11 Sep - 16:48:59 10° WNW 16:53:13 13° NW 16:57:27 10° NNW daylight
